Find Starlink 35201

NORAD ID: 65664 Int'l Des: 2025-211 Owner: SPXS Country: US Constellation: starlink operational
LEOCIRCULARRETROGRADESSO

Aktuelle Ansicht

3D-Globus wird geladen...

Über Starlink 35201

Beschreibung wird geladen...

Nächste Überflüge

Passes for default location (London). Set your location on the main map for personalized predictions.

Höhenverlauf

Loading altitude history...

Zweizeiliger Elementsatz

1 65664U 25211N 26151.10015981 .00003718 00000-0 26157-3 0 9991
2 65664 97.4219 194.8200 0002175 120.6035 239.5407 15.05655391 39447
Epoch: 31. Mai 2026 • Age: 10 hours

Aktueller Status

Höhe 550.8 km
Geschwindigkeit 7.59 km/s
Subsatellitenpunkt 11.88°N, 62.99°W
Startdatum 19. Sept. 2025
Alter 0.6 years
Typ internet

Technische Details

Klassifizierung Payload
Masse 575.00 kg
Trockenmasse 530.00 kg
Gesamtmasse 575.00 kg
Länge 0.30 m
Durchmesser 4.10 m
Spannweite 29.00 m
Form Box + pan
Hersteller SPXS
Bus-Typ Starlink V2MO
Phasenstatus In Orbit
Besitzer/Staat SPXS/US

Most Searched